EW7988 Weather Reports


time (UTC)temp
C
wind
direction
speed
KPH
gust
KPH
rain 1hr
cm
rain 24hr
cm
rain mn
cm
humidity
%
barometer
mb
20260508024605 19 349 0.0 0.0 0.00 0.00 0.00 36 1006.6
20260508023056 20 355 0.0 0.0 0.00 0.00 0.00 31 1006.6
20260508021551 20 355 0.0 0.0 0.00 0.00 0.00 28 1006.7
20260508020048 20 309 0.0 0.0 0.00 0.00 0.00 24 1006.6
20260508014545 21 339 0.0 0.0 0.00 0.00 0.00 31 1006.3
20260508013041 21 282 0.0 0.0 0.00 0.00 0.00 29 1006.4
20260508011521 22 290 0.0 0.0 0.00 0.00 0.00 28 1006.4
20260508010018 22 308 0.0 0.0 0.00 0.00 0.00 26 1006.5
20260508004504 22 306 0.0 0.0 0.00 0.00 0.00 26 1006.4
20260508003058 23 339 0.0 0.0 0.00 0.00 0.00 23 1006.5
20260508001556 23 299 0.0 0.0 0.00 0.00 0.00 22 1006.3
20260508000053 23 290 0.0 0.0 0.00 0.00 0.00 22 1006.4
20260507234555 23 263 0.0 0.0 0.00 0.00 0.00 20 1006.4
20260507233150 23 360 0.0 0.0 0.00 0.00 0.00 21 1006.4
20260507231552 23 360 0.0 0.0 0.00 0.00 0.00 20 1006.6
20260507230049 24 313 0.0 0.0 0.00 0.00 0.00 19 1006.8
20260507224549 23 273 0.0 0.0 0.00 0.00 0.00 19 1007.0
20260507223148 23 313 0.0 0.0 0.00 0.00 0.00 21 1007.1
20260507221547 23 299 0.0 0.0 0.00 0.00 0.00 21 1007.3
20260507220046 22 360 0.0 0.0 0.00 0.00 0.00 20 1007.4
20260507214545 22 360 0.0 0.0 0.00 0.00 0.00 19 1007.5
20260507213143 22 288 0.0 0.0 0.00 0.00 0.00 19 1007.7
20260507211527 22 360 0.0 0.0 0.00 0.00 0.00 20 1007.8
20260507210029 22 360 0.0 0.0 0.00 0.00 0.00 21 1007.9
20260507204524 21 266 0.0 0.0 0.00 0.00 0.00 23 1008.1
20260507203023 21 269 0.0 0.0 0.00 0.00 0.00 27 1008.2
20260507201522 20 360 0.0 0.0 0.00 0.00 0.00 30 1008.3
20260507200022 20 360 0.0 0.0 0.00 0.00 0.00 27 1008.4
20260507194520 20 268 0.0 0.0 0.00 0.00 0.00 29 1008.5
20260507193018 19 360 0.0 0.0 0.00 0.00 0.00 32 1008.5
20260507191600 19 207 0.0 0.0 0.00 0.00 0.00 35 1008.7
20260507184541 18 259 0.0 0.0 0.00 0.00 0.00 40 1009.1
20260507183043 18 286 0.0 0.0 0.00 0.00 0.00 39 1009.3
20260507181519 18 309 0.0 0.0 0.00 0.00 0.00 41 1009.3
20260507180017 17 360 0.0 0.0 0.00 0.00 0.00 39 1009.2
20260507174606 17 360 0.0 0.0 0.00 0.00 0.00 40 1009.3
20260507173056 16 360 0.0 0.0 0.00 0.00 0.00 48 1009.3
20260507171555 16 187 0.0 0.0 0.00 0.00 0.00 50 1009.3
20260507170040 16 360 0.0 0.0 0.00 0.00 0.00 53 1009.3
20260507164536 16 360 0.0 0.0 0.00 0.00 0.00 54 1009.3
20260507163032 16 360 0.0 0.0 0.00 0.00 0.00 48 1009.3
20260507161531 15 360 0.0 0.0 0.00 0.00 0.00 51 1009.5
20260507160031 15 360 0.0 0.0 0.00 0.00 0.00 54 1009.6
20260507154534 13 360 0.0 0.0 0.00 0.00 0.00 58 1009.7
20260507153030 13 360 0.0 0.0 0.00 0.00 0.00 59 1009.9
20260507151512 13 360 0.0 0.0 0.00 0.00 0.00 60 1010.1
20260507150011 13 360 0.0 0.0 0.00 0.00 0.00 61 1010.0
20260507144615 12 360 0.0 0.0 0.00 0.00 0.00 64 1009.9
20260507143055 12 330 0.0 0.0 0.00 0.00 0.00 64 1010.0
20260507141548 11 330 0.0 0.0 0.00 0.00 0.00 68 1010.0
20260507140042 11 329 0.0 0.0 0.00 0.00 0.00 70 1010.1
20260507134546 9 329 0.0 0.0 0.00 0.00 0.00 73 1010.0
20260507133042 8 328 0.0 0.0 0.00 0.00 0.00 76 1009.9
20260507131544 7 345 0.0 0.0 0.00 0.00 0.00 79 1009.7
20260507130039 7 275 0.0 0.0 0.00 0.00 0.00 75 1009.6
20260507124538 7 275 0.0 0.0 0.00 0.00 0.00 76 1009.3
20260507123038 7 275 0.0 0.0 0.00 0.00 0.00 77 1009.4
20260507121517 7 275 0.0 0.0 0.00 0.00 0.00 75 1009.4
20260507120015 7 275 0.0 0.0 0.00 0.00 0.00 74 1009.7
20260507114502 7 275 0.0 0.0 0.00 0.00 0.00 74 1009.6
20260507113059 8 275 0.0 0.0 0.00 0.00 0.00 71 1009.6
20260507111557 10 267 0.0 0.0 0.00 0.00 0.00 67 1009.6
20260507110055 11 360 0.0 0.0 0.00 0.00 0.00 65 1009.4
20260507104557 10 360 0.0 0.0 0.00 0.00 0.00 66 1009.3
20260507103055 11 360 0.0 0.0 0.00 0.00 0.00 61 1009.1
20260507101553 13 360 0.0 0.0 0.00 0.00 0.00 56 1009.2
20260507100052 13 207 0.0 0.0 0.00 0.00 0.00 56 1009.4
20260507094546 12 360 0.0 0.0 0.00 0.00 0.00 56 1009.4
20260507093045 13 360 0.0 0.0 0.00 0.00 0.00 54 1009.3
20260507091543 11 360 0.0 0.0 0.00 0.00 0.00 61 1009.4
20260507090040 10 307 0.0 0.0 0.00 0.00 0.00 64 1009.6
20260507084543 9 11 0.0 0.0 0.00 0.00 0.00 67 1009.8
20260507083036 9 10 0.0 0.0 0.00 0.00 0.00 67 1010.1
20260507081532 10 10 0.0 0.0 0.00 0.00 0.00 65 1009.9
20260507080037 11 303 0.0 0.0 0.00 0.00 0.00 62 1009.9
20260507074513 10 304 0.0 0.0 0.00 0.00 0.00 64 1010.0
20260507073010 10 290 0.0 0.0 0.00 0.00 0.00 62 1010.0
20260507071559 11 274 0.0 0.0 0.00 0.00 0.00 60 1010.0
20260507070101 11 360 0.0 0.0 0.00 0.00 0.00 61 1010.1
20260507064552 11 360 0.0 0.0 0.00 0.00 0.00 59 1010.1
20260507063050 13 360 0.0 0.0 0.00 0.00 0.00 55 1010.1
20260507061545 14 360 0.0 0.0 0.00 0.00 0.00 53 1010.2
20260507060051 15 360 0.0 0.0 0.00 0.00 0.00 52 1010.2
20260507054548 14 360 0.0 0.0 0.00 0.00 0.00 52 1010.2
20260507053042 15 360 0.0 0.0 0.00 0.00 0.00 50 1010.3
20260507051520 15 336 0.0 0.0 0.00 0.00 0.00 49 1010.1
20260507050019 15 336 0.0 0.0 0.00 0.00 0.00 48 1010.3
20260507044616 15 360 0.0 0.0 0.00 0.00 0.00 47 1010.3
20260507043103 15 360 0.0 0.0 0.00 0.00 0.00 50 1010.2
20260507041553 15 360 0.0 0.0 0.00 0.00 0.00 49 1010.1
20260507040039 15 360 0.0 0.0 0.00 0.00 0.00 48 1009.9
20260507034538 17 360 0.0 0.0 0.00 0.00 0.00 46 1009.6
20260507033031 17 360 0.0 0.0 0.00 0.00 0.00 43 1009.6
20260507031524 18 360 0.0 0.0 0.00 0.00 0.00 42 1009.4
20260507030021 19 271 0.0 0.0 0.00 0.00 0.00 40 1009.4